Powrót do katalogu

STARLINK-4739

AktywnyŁącznośćVLEO
NORAD 53792·PAYLOAD·🇺🇸 United States

Wystrzelony Sep 11, 2022 z Cape Canaveral Space Force Station

Loading…

Następne Przeloty (najbliższe 24 godziny)

TLE

ŚwieżeSource: CelesTrak SupGP

Epoka: Sep 14, 2026, 21:40 UTC

1 53792C 22111V   26257.90326389 -.00013961  00000+0 -44937-3 0  2573
2 53792  53.1569 132.2234 0001215  88.3928 142.0917 15.31678759    18

Śledź STARLINK-4739 w czasie rzeczywistym z AllMySat

Download on the App Store